Regional Weather Roundup
Issued by NWS Sioux Falls, SD

Home | Current Version | Previous Version | Text Only | Print | Product List | Glossary On
Versions: 1 2 3 4 5 6 7 8 9 10 11 12 13 14 15 16 17 18 19 20 21 22 23 24 25 26 27 28 29 30 31 32 33 34 35 36 37 38 39 40 41 42 43 44 45 46 47 48 49 50
430
ASUS43 KFSD 240710
RWRFSD

WEATHER ROUNDUP FOR SE SOUTH DAKOTA/SW MINNESOTA/NW IOWA
NATIONAL WEATHER SERVICE SIOUX FALLS SD
200 AM CDT SAT JUN 24 2017

NOTE: "FAIR" INDICATES FEW OR NO CLOUDS BELOW 12,000 FEET WITH NO
SIGNIFICANT WEATHER AND OR OBSTRUCTIONS TO VISIBILITY.


SDZ038>040-050-052>070-240800-
SOUTHEAST SOUTH DAKOTA

CITY           SKY/WX    TMP DP  RH WIND       PRES   REMARKS
BROOKINGS      CLEAR     48  42  80 W6        30.10S
CHAMBERLAIN    CLEAR     52  41  68 CALM      30.17S
HURON          CLEAR     47  43  86 W7        30.12F
MADISON        FAIR      48  43  81 NW8       30.12S
MITCHELL       CLEAR     51  41  68 W7        30.14S
SIOUX FALLS    CLEAR     52  43  71 W8        30.11R
WINNER         FAIR      49  34  56 W5        30.19R
YANKTON        CLEAR     53  40  61 W7        30.14
$$

MNZ071-072-080-081-089-090-097-098-240800-
SOUTHWEST MINNESOTA

CITY           SKY/WX    TMP DP  RH WIND       PRES   REMARKS
FAIRMONT       PTCLDY    55  45  68 NW10      30.04R
JACKSON        CLEAR     54  43  66 NW10      30.07R
LUVERNE        CLEAR     46  41  81 NW6       30.11R
MARSHALL       CLEAR     53  43  68 W12       30.06S
MONTEVIDEO     CLEAR     52  43  71 NW5       30.04S
PIPESTONE      CLEAR     52  43  71 NW6       30.09S
REDWOOD FALLS  CLEAR     52  43  71 W8        30.03S
TRACY          CLEAR     54  44  67 W6        30.07S
WINDOM         CLEAR     52  43  71 W9        30.06S
WORTHINGTON    CLEAR     52  42  69 NW10      30.09R
$$

IAZ001>003-012>014-020>022-031-032-NEZ013-014-SDZ071-240800-
NORTHWEST IOWA

CITY           SKY/WX    TMP DP  RH WIND       PRES   REMARKS
CHEROKEE       CLEAR     52  42  68 CALM      30.10S
DENISON        PTCLDY    50  45  81 CALM      30.12S
ESTHERVILLE    PTCLDY    52  47  83 NW9       30.05S
LE MARS        CLEAR     52  43  71 CALM      30.12R
ORANGE CITY    CLEAR     50  43  76 NW6       30.11R
SHELDON        CLEAR     52  43  71 NW6       30.09R
SIOUX CITY     CLEAR     51  41  68 CALM      30.12R
SPENCER        CLEAR     51  45  79 W10       30.08R
STORM LAKE     CLEAR     52  43  71 W10       30.10R
$$

ABBREVIATIONS USED IN REMARKS
   TC - TEMPERATURE IN CELSIUS
  WCI - WIND CHILL INDEX
   HX - HEAT INDEX
  VSB - VISIBILITY





USA.gov is the U.S. government's official web portal to all federal, state and local government web resources and services.